Home   Weather   Laval   Past weeks

Flag for Canada Past Weather in Laval, Quebec, Canada — Yesterday and Last 2 Weeks

Now
28 °F

Overcast.


Feels Like: 25 °F
Forecast: 33 / 39 °F
Wind: 3 mph from North

Location: Montreal / Mirabel

Current Time: Feb 21, 2017 at 8:52:44 pm

Latest Report: Feb 21, 2017 at 8:00 pm


Visibility: 25 mi

Pressure: 29.99 "Hg

Humidity: 69%

Dew Point: 19 °F

Location of LavalLocation

Past Weather in Laval — Graph

°F

Laval Temperature Yesterday

Maximum temperature yesterday: 32 °F (at 12:00 am)
Minimum temperature yesterday: 19 °F (at 6:00 am)
Average temperature yesterday: 26 °F

High & Low Weather Summary for the Past Weeks

 TemperatureHumidityPressure
High45 °F (Feb 19, 12:00 pm)100% (Feb 8, 2:41 am)30.43 "Hg (Feb 8, 2:41 am)
Low0 °F (Feb 10, 2:00 am)39% (Feb 10, 1:00 pm)29.23 "Hg (Feb 8, 4:00 am)
Average19 °F76%29.84 "Hg
* Reported Feb 6 7:00 pm — Feb 21 7:00 pm, Laval, Weather by CustomWeather, © 2017

Note: Actual official high and low records may vary slightly from our data, if they occured in-between our weather recording intervals... More about our weather records

Advertising

Laval Weather History for the Previous 24 Hours

Scroll right to see more
 ConditionsComfort  
Time TempWeatherWind HumidityBarometerVisibility
7:00 pm
Tue, Feb 21
28 °FOvercast.5 mph69%30.00 "Hg25 mi
6:19 pm28 °FLight freezing rain. Overcast.2 mph64%30.01 "Hg20 mi
6:00 pm28 °FOvercast.3 mph64%30.01 "Hg25 mi
5:00 pm28 °FMore clouds than sun.5 mph69%30.02 "Hg20 mi
4:00 pm28 °FMostly cloudy.6 mph64%30.03 "Hg25 mi
3:00 pm28 °FCloudy.5 mph64%30.07 "Hg25 mi
2:00 pm27 °FMostly cloudy.5 mph64%30.09 "Hg25 mi
1:00 pm27 °FMostly cloudy.8 mph59%30.13 "Hg25 mi
12:00 pm25 °FMostly cloudy.8 mph63%30.18 "Hg20 mi
11:00 am25 °FMore clouds than sun.5 mph63%30.24 "Hg20 mi
10:00 am21 °FMostly cloudy.5 mph68%30.27 "Hg20 mi
9:00 am19 °FPartly sunny.8 mph63%30.29 "Hg45 mi
8:00 am14 °FBroken clouds.5 mph73%30.33 "Hg45 mi
7:00 am12 °FBroken clouds.7 mph73%30.32 "Hg45 mi
6:00 am12 °FClear.6 mph85%30.35 "Hg45 mi
5:00 am10 °FClear.6 mph92%30.36 "Hg25 mi
4:00 am12 °FClear.2 mph92%30.37 "Hg25 mi
3:00 am14 °FClear.2 mph85%30.38 "Hg25 mi
2:00 am16 °FClear.2 mph86%30.39 "Hg25 mi
1:00 am16 °FClear.No wind86%30.40 "Hg25 mi
12:00 am16 °FClear.2 mph86%30.41 "Hg25 mi
11:00 pm
Mon, Feb 20
19 °FClear.No wind73%30.42 "Hg25 mi
10:00 pm21 °FClear.No wind68%30.43 "Hg25 mi
9:00 pm23 °FClear.2 mph63%30.42 "Hg25 mi
8:00 pm21 °FClear.3 mph68%30.41 "Hg25 mi
Weather by CustomWeather, © 2017

See weather overviewHow to use our weather pages